This is the latest recevied weather packets stored in our database for station/object N5SOR-1. If no packets are shown the sender has not sent any weather packets the latest 10 day(s).
| Time | Temp. | Humidity | Pressure | Rain* | Wind** | Luminosity | Snow |
|---|---|---|---|---|---|---|---|
| 1777565298 | 20° C | 71% | 1010.1 hPa | 0 mm | - | 113 W/m² | - |
| 1777564637 | 20° C | 70% | 1010.3 hPa | 0 mm | - | 239 W/m² | - |
| 1777563977 | 19.44° C | 71% | 1010.4 hPa | 0 mm | - | 283 W/m² | - |
| 1777563316 | 18.33° C | 74% | 1010.1 hPa | 0 mm | - | 264 W/m² | - |
| 1777562656 | 17.22° C | 75% | 1010.3 hPa | 0 mm | - | 225 W/m² | - |
| 1777561995 | 17.22° C | 76% | 1010.3 hPa | 0 mm | - | 186 W/m² | - |
| 1777561334 | 16.67° C | 76% | 1010.3 hPa | 0 mm | - | 171 W/m² | - |
| 1777560674 | 16.67° C | 76% | 1010.4 hPa | 0 mm | - | 156 W/m² | - |
| 1777560013 | 16.67° C | 77% | 1010.3 hPa | 0 mm | - | 125 W/m² | - |
| 1777559352 | 16.67° C | 77% | 1010.3 hPa | 0 mm | - | 118 W/m² | - |
| 1777558692 | 16.67° C | 76% | 1010.4 hPa | 0 mm | - | 123 W/m² | - |
| 1777558031 | 16.67° C | 77% | 1010.5 hPa | 0 mm | - | 111 W/m² | - |
| 1777557371 | 16.11° C | 77% | 1010.5 hPa | 0 mm | - | 134 W/m² | - |
| 1777556710 | 16.67° C | 77% | 1010.4 hPa | 0 mm | - | 95 W/m² | - |
| 1777556049 | 16.67° C | 77% | 1010.4 hPa | 0 mm | - | 74 W/m² | - |
| 1777555389 | 16.67° C | 77% | 1010.1 hPa | 0 mm | - | 97 W/m² | - |
| 1777554728 | 16.67° C | 77% | 1009.9 hPa | 0 mm | - | 70 W/m² | - |
| 1777554068 | 17.22° C | 78% | 1009.8 hPa | 0 mm | - | 54 W/m² | - |
| 1777553407 | 17.22° C | 78% | 1009.6 hPa | 0 mm | - | 33 W/m² | - |
| 1777552746 | 17.78° C | 81% | 1009.3 hPa | 0 mm | - | 16 W/m² | - |
| 1777552086 | 17.78° C | 80% | 1009.4 hPa | 0 mm | - | 14 W/m² | - |
| 1777551425 | 17.22° C | 80% | 1009 hPa | 0 mm | - | 0 W/m² | - |
| 1777550764 | 16.67° C | 80% | 1009.2 hPa | 0 mm | - | 0 W/m² | - |
| 1777550104 | 16.67° C | 79% | 1009 hPa | 0 mm | - | 0 W/m² | - |
| 1777549443 | 16.67° C | 79% | 1009.1 hPa | 0 mm | - | 0 W/m² | - |
* Rain latest hour (hover to see other rain measurements)
** Current wind speed in m/s (hover to see current wind gust speed)